Location: Ferchesar
(52.6477°N, 12.4298°E)
Time: 10:13:12
(UTC+01:00)

S-56A Canister/Altair - Pass Details

Date: 11 December 2021
Orbit: 633 x 2499 km, 38.9° (Epoch: 19 January)

Event Time Altitude Azimuth Distance (km) Brightness Sun altitude
Rises 19:44:54 0° 197° (SSW) 6,109 12.3 -33.4°
Reaches altitude 10° 19:50:53 10° 181° (S) 4,936 11.6 -34.3°
Enters shadow 19:55:40 16° 162° (SSE) 4,208 11.0 -35.0°
Maximum altitude 19:58:48 18° 146° (SE) 3,934 - -35.4°
Drops below altitude 10° 20:05:33 10° 109° (ESE) 4,126 - -36.5°
Sets 20:09:49 0° 92° (E) 4,784 - -37.1°
